KLM615 EHAM-KPDX

Flight info

Callsign KLM615
Flight time N/A
Altitude 36000
Route BERGI M90 LONAM DCT BEKET DCT OSBON/M085F360 DCT 63N010W 6630N02000W 70N030W 72N040W 73N060W/M084F380 DCT MEDPA/N0490F380 DCT 7130N08000W 69N090W 65N100W 60N110W 55N116W/N0479F400 DCT LONRO DCT YDC J503 SEA DCT BUWZO KRATR3
Aircraft B789/H-SDE1E2E3FGHIJ2J3J4J5M1RWXY/LB1D1

Departure

Time N/A
Airport Amsterdam Airport Schiphol (EHAM)

Arrival

Time 2026-05-04 07:49
Airport Portland International Airport (KPDX)
Time Latitude Longitude Altitude Speed Heading
2026-05-04 07:33 46.36875 -122.30960 16624 ft 350 kts 179°
2026-05-04 07:33 46.34446 -122.30960 15618 ft 350 kts 179°
2026-05-04 07:33 46.32043 -122.30961 15373 ft 340 kts 179°
2026-05-04 07:33 46.29713 -122.30962 15093 ft 331 kts 179°
2026-05-04 07:34 46.27419 -122.30961 14792 ft 330 kts 179°
2026-05-04 07:34 46.25133 -122.31258 14411 ft 333 kts 195°
2026-05-04 07:34 46.22984 -122.32427 14084 ft 326 kts 202°
2026-05-04 07:34 46.20886 -122.33654 13773 ft 325 kts 202°
2026-05-04 07:35 46.18773 -122.34849 13429 ft 327 kts 201°
2026-05-04 07:35 46.16648 -122.36014 13061 ft 325 kts 201°
2026-05-04 07:35 46.14554 -122.37169 12696 ft 320 kts 201°
2026-05-04 07:35 46.12484 -122.38327 12331 ft 319 kts 201°
2026-05-04 07:36 46.10416 -122.39483 11978 ft 317 kts 202°
2026-05-04 07:36 46.08379 -122.40613 11643 ft 311 kts 201°
2026-05-04 07:38 45.94849 -122.47893 8842 ft 279 kts 202°
2026-05-04 07:38 45.93008 -122.48661 8398 ft 276 kts 186°
2026-05-04 07:38 45.91097 -122.48352 8025 ft 275 kts 171°
2026-05-04 07:38 45.89211 -122.47879 7712 ft 275 kts 171°
2026-05-04 07:39 45.87328 -122.47400 7377 ft 275 kts 171°
2026-05-04 07:39 45.85433 -122.46927 7035 ft 277 kts 171°
2026-05-04 07:39 45.83543 -122.46459 6694 ft 275 kts 171°
2026-05-04 07:39 45.81689 -122.45998 6350 ft 274 kts 171°
2026-05-04 07:40 45.79821 -122.45532 6081 ft 270 kts 171°
2026-05-04 07:40 45.77988 -122.45076 5989 ft 266 kts 171°
2026-05-04 07:40 45.76156 -122.44622 5996 ft 269 kts 171°
2026-05-04 07:40 45.74296 -122.44160 5995 ft 272 kts 171°
2026-05-04 07:41 45.72435 -122.43698 5999 ft 272 kts 171°
2026-05-04 07:41 45.70598 -122.43242 5767 ft 266 kts 171°
2026-05-04 07:41 45.68758 -122.42787 5228 ft 270 kts 170°
2026-05-04 07:41 45.66908 -122.42329 4794 ft 269 kts 170°
2026-05-04 07:42 45.65067 -122.41873 4361 ft 268 kts 170°
2026-05-04 07:42 45.63234 -122.41419 3930 ft 267 kts 169°
2026-05-04 07:42 45.61452 -122.40796 3376 ft 264 kts 155°
2026-05-04 07:42 45.60022 -122.39123 2719 ft 268 kts 130°
2026-05-04 07:43 45.58878 -122.37053 2347 ft 263 kts 126°
2026-05-04 07:43 45.57825 -122.34972 2086 ft 254 kts 125°
2026-05-04 07:43 45.56849 -122.32992 2039 ft 236 kts 124°
2026-05-04 07:43 45.55828 -122.31190 1996 ft 235 kts 139°
2026-05-04 07:44 45.54321 -122.30440 1927 ft 231 kts 179°
2026-05-04 07:44 45.52832 -122.31187 1912 ft 231 kts 217°
2026-05-04 07:44 45.51889 -122.33012 1983 ft 228 kts 242°
2026-05-04 07:44 45.51413 -122.35162 1947 ft 229 kts 266°
2026-05-04 07:45 45.51478 -122.37344 1995 ft 217 kts 275°
2026-05-04 07:45 45.51755 -122.39396 1985 ft 202 kts 285°
2026-05-04 07:45 45.52316 -122.41182 1994 ft 195 kts 299°
2026-05-04 07:45 45.52974 -122.42872 1996 ft 195 kts 299°
2026-05-04 07:46 45.53624 -122.44539 1943 ft 186 kts 299°
2026-05-04 07:46 45.54243 -122.46125 1673 ft 178 kts 299°
2026-05-04 07:46 45.54829 -122.47629 1443 ft 172 kts 299°
2026-05-04 07:46 45.55407 -122.49112 1249 ft 171 kts 299°
2026-05-04 07:47 45.55969 -122.50555 1034 ft 159 kts 299°
2026-05-04 07:47 45.56498 -122.51911 830 ft 156 kts 299°
2026-05-04 07:47 45.57019 -122.53251 626 ft 153 kts 299°
2026-05-04 07:49 45.59623 -122.59935 36 ft 27 kts 282°
2026-05-04 07:49 45.59564 -122.60054 36 ft 15 kts 211°
2026-05-04 07:49 45.59486 -122.60088 34 ft 5 kts 164°
2026-05-04 07:50 45.59483 -122.60087 34 ft 0 kts 164°
2026-05-04 07:50 45.59472 -122.60080 33 ft 6 kts 151°
2026-05-04 07:50 45.59442 -122.60008 33 ft 12 kts 115°
2026-05-04 07:51 45.59403 -122.59891 34 ft 13 kts 119°
2026-05-04 07:51 45.59354 -122.59782 34 ft 12 kts 140°
2026-05-04 07:51 45.59284 -122.59788 35 ft 10 kts 205°
2026-05-04 07:51 45.59256 -122.59782 35 ft 1 kts 131°
2026-05-04 07:52 45.59240 -122.59747 35 ft 6 kts 123°
2026-05-04 07:52 45.59210 -122.59711 35 ft 1 kts 150°
2026-05-04 07:52 45.59201 -122.59704 34 ft 0 kts 151°